Tracking 25534 objects as of 28-Jan-2022
HD Live streaming from Space Station
objects crossing your sky now

KOREASAT 116

Track KOREASAT 116 now!


NORAD ID: 45920
Int'l Code: 2020-048A
Perigee: 35,791.6 km
Apogee: 35,798.4 km
Inclination: 0.0 °
Period: 1,436.2 minutes
Semi major axis: 42165 km
RCS: Unknown
Launch date: July 20, 2020
Source: United States (US)
Launch site: AIR FORCE EASTERN TEST RANGE (AFETR)
aabbcc
Your satellite tracking list
Your tracking list is empty




NASA's NSSDC Master Catalog

Two Line Element Set (TLE):
1 45920U 20048A   22028.56160420 -.00000360  00000-0  00000-0 0  9992
2 45920   0.0191 317.1144 0000798 340.3872 148.6165  1.00267266  5595
Source of the keplerian elements: AFSPC